Rechercher aéroport 
image banner adimage banner ad
image banner ad

EVSM - Lielvarde M Sola

Situé à Lielvarde, Latvia

ICAO - , IATA -

Données fournies par Airmate  

Information générale

Coordonnées: N56°39'59" E24°54'11"
Élévation : 142 feet MSL.
Variation magnétique : 7° East
Voir autres Aéroports à Ogre District

Données opérationnelles

Accessible au public
Heure actuelle UTC:
Heure actuelle locale:
Météo à : EVRA - Riga ( 64 km )
METAR: EVRA 211750Z 17012KT CAVOK 02/00 Q0998 R18/720293 NOSIG
TAF: TAF EVRA 211703Z 2118/2218 16009KT CAVOK TEMPO 2200/2212 BKN005 TEMPO 2216/2218 BKN010 OVC020
Voir NOTAMs / SUP AIP / TFR affectant cet aéroport [VIEW]
Fréquences de communication: [VIEW]

Pistes:

Coordonnées de l'aéroport

Adresse: Lielvarde Latvia

Vue satellite de EVSM